Terug naar catalogus

CHUANG XIN 1

CZ-1

ActiefWetenschapSSO
NORAD 28058·PAYLOAD·🇨🇳 China

Gelanceerd Oct 21, 2003 vanaf Taiyuan Satellite Launch Center

Loading…

Volgende Passages (komende 24 uur)

TLE

VersSource: Space-Track

Epoch: Sep 14, 2026, 05:00 UTC

1 28058U 03049B   26257.20894570  .00000144  00000-0  50416-4 0  9995
2 28058  98.4954 156.8752 0011283 273.6486  86.3417 14.48620131209166

Volg CHUANG XIN 1 in realtime met AllMySat

Download on the App Store